Location: Unspecified
(0.0000°N, 0.0000°E)
Time: 08:43:01
(UTC+00:00)

Transit 4B - Pass Details

Date: 21 August 2024
Orbit: 947 x 1097 km, 32.4° (Epoch: 07 September)

Event Time Altitude Azimuth Distance (km) Brightness Sun altitude
Rises 18:50:34 0° 317° (NW) 3,695 12.5 -11.6°
Reaches altitude 10° 18:53:25 10° 324° (NW) 2,725 11.6 -12.3°
Maximum altitude 18:59:34 42° 34° (NNE) 1,330 9.1 -13.8°
Enters shadow 19:03:31 21° 94° (E) 2,016 9.5 -14.8°
